Tracking 19905 objects as of 18-Oct-2019
HD Live streaming from Space Station
objects crossing your sky now

COSMOS 1275 DEB

Track COSMOS 1275 DEB now!
10-day predictions


NORAD ID: 42212
Int'l Code: 1981-053UC
Perigee: 930.2 km
Apogee: 1,157.7 km
Inclination: 83.1 °
Period: 105.9 minutes
Semi major axis: 7414 km
RCS: Unknown
Launch date: June 4, 1981
Source: Commonwealth of Independent States (former USSR) (CIS)
Launch site: PLESETSK MISSILE AND SPACE COMPLEX (PKMTR)

Note: This is SATELLITE DEBRIS
aabbcc
Your satellite tracking list
Your tracking list is empty




NASA's NSSDC Master Catalog

Two Line Element Set (TLE):
1 42212U 81053UC  19289.20552264  .00000313  00000-0  36975-3 0  9993
2 42212  83.0515  82.9300 0153428  99.4491  24.4807 13.59688377857323
Source of the keplerian elements: AFSPC